User: anonymous   Login
Location: Unspecified
(0.0000°N, 0.0000°E)
Time: 20:05:20
(UTC+00:00)
Language:

AE2A - Orbit

View from above orbital plane
View from above orbital plane
View from above satellite
View from above satellite

Ground track
Ground track

The orbit is defined by the following mean orbital elements,

1 64591U          26145.56333715 +.00000000 +00000-0 +34107-3 0 00007
2 64591  97.7659 260.9339 0006194  56.8431 303.3384 14.96881130    04
Epoch (UTC): 25 May 2026 13:31:12
Eccentricity: 0.0006194
inclination: 97.7659°
perigee height: 572 km
apogee height: 581 km
right ascension of ascending node: 260.9339°
argument of perigee: 56.8431°
revolutions per day: 14.96881130
mean anomaly at epoch: 303.3384°

The dashed part of the orbit path shows where the satellite is in the earth's shadow,  

DLR